Location: Unspecified
(64.9000°N, 0.0000°E)
Time: 01:38:38
(UTC+00:00)

Transit 2A Rocket - Pass Details

Date: 22 June 2019
Orbit: 588 x 915 km, 66.7° (Epoch: 22 July)

Event Time Altitude Azimuth Distance (km) Brightness Sun altitude
Rises 15:40:18 0° 287° (WNW) 3,482 9.0 35.9°
Reaches altitude 10° 15:42:53 10° 288° (WNW) 2,506 8.5 35.6°
Maximum altitude 15:48:42 83° 16° (NNE) 824 5.7 35.0°
Drops below altitude 10° 15:54:01 10° 106° (ESE) 2,290 7.1 34.5°
Sets 15:56:17 0° 107° (ESE) 3,161 7.8 34.3°
